DW5918 Weather Reports


Display with metric or nautical units.
time (UTC)temp
F
wind
direction
speed
MPH
gust
MPH
rain 1hr
in
rain 24hr
in
rain mn
in
humidity
%
barometer
mb
20260509161604 48 89 0.0 1.0 0.01 0.23 0.23 1 1013.6
20260509160015 47 88 0.0 1.0 0.01 0.23 0.23 1 1013.6
20260509154603 46 88 0.0 1.0 0.00 0.22 0.22 1 1013.7
20260509153043 46 88 0.0 1.0 0.00 0.22 0.22 1 1013.6
20260509151613 45 101 1.0 2.0 0.00 0.22 0.22 1 1013.5
20260509150031 44 101 0.0 3.0 0.01 0.22 0.22 1 1013.6
20260509144613 44 113 1.0 3.0 0.01 0.22 0.22 1 1013.6
20260509143040 43 76 1.0 3.0 0.01 0.22 0.22 1 1013.6
20260509141633 43 76 0.0 1.0 0.01 0.22 0.22 1 1013.9
20260509134515 42 77 0.0 3.0 0.02 0.21 0.21 7 1013.9
20260509133107 42 121 0.0 2.0 0.03 0.21 0.21 1 1014.1
20260509131529 42 44 0.0 2.0 0.03 0.21 0.21 1 1014.2
20260509130120 41 44 0.0 2.0 0.03 0.20 0.20 1 1014.2
20260509124527 41 44 0.0 2.0 0.02 0.19 0.19 3 1014.3
20260509123124 41 44 0.0 2.0 0.01 0.18 0.18 4 1014.3
20260509121539 41 45 0.0 2.0 0.01 0.18 0.18 3 1014.3
20260509120134 41 44 0.0 1.0 0.00 0.17 0.17 1 1014.4
20260509114557 40 44 0.0 1.0 0.01 0.17 0.17 1 1014.3
20260509113017 40 44 0.0 1.0 0.02 0.17 0.17 2 1014.5
20260509111611 40 44 0.0 2.0 0.04 0.17 0.17 1 1014.5
20260509110029 40 44 0.0 3.0 0.05 0.17 0.17 7 1014.7
20260509103038 40 44 0.0 0.0 0.06 0.15 0.15 8 1014.9
20260509101629 40 44 0.0 1.0 0.06 0.13 0.13 13 1014.9
20260509100049 40 44 0.0 1.0 0.07 0.12 0.12 24 1014.7
20260509094509 40 44 1.0 3.0 0.07 0.11 0.11 6 1014.6
20260509093107 40 289 0.0 0.0 0.07 0.09 0.09 1 1014.5
20260509091527 40 289 0.0 0.0 0.06 0.07 0.07 1 1014.4
20260509090119 40 289 0.0 0.0 0.05 0.05 0.05 1 1014.3
20260509084533 40 289 0.0 0.0 0.04 0.04 0.04 16 1014.4
20260509083124 40 288 0.0 0.0 0.02 0.02 0.02 10 1014.4
20260509081541 41 289 0.0 0.0 0.01 0.01 0.01 14 1014.3
20260509080128 40 289 0.0 0.0 0.00 0.00 0.00 12 1013.9
20260509074610 40 289 0.0 0.0 0.00 0.00 0.00 1 1013.7
20260509071604 39 289 0.0 0.0 0.00 0.00 0.00 1 1013.9
20260509070023 39 289 0.0 0.0 0.00 0.00 0.00 1 1014.0
20260509064617 38 289 0.0 0.0 0.00 0.00 0.00 1 1014.2
20260509063052 38 289 0.0 0.0 0.00 0.00 0.00 1 1014.1
20260509061631 38 289 0.0 0.0 0.00 0.00 0.00 1 1014.2
20260509060108 38 289 0.0 0.0 0.00 0.00 0.00 1 1014.2
20260509054512 38 289 0.0 0.0 0.00 0.00 0.00 1 1014.4
20260509053118 38 289 0.0 0.0 0.00 0.00 0.00 1 1014.5
20260509051529 38 289 0.0 0.0 0.00 0.00 0.00 1 1014.5
20260509050123 37 289 0.0 0.0 0.00 0.00 0.00 1 1014.4
20260509044544 37 288 0.0 0.0 0.00 0.00 0.00 4 1014.3
20260509043130 38 288 0.0 0.0 0.00 0.00 0.00 3 1014.2
20260509040003 38 289 0.0 0.0 0.00 0.00 0.00 17 1014.2
20260509034616 39 289 0.0 0.0 0.00 0.00 0.00 18 1014.3
20260509033035 39 289 0.0 0.0 0.00 0.00 0.00 24 1014.2
20260509031627 39 289 0.0 0.0 0.00 0.00 0.00 32 1014.1
20260509030049 39 289 0.0 0.0 0.00 0.00 0.00 39 1014.1
20260509024509 40 289 0.0 0.0 0.00 0.00 0.00 48 1013.9
20260509023053 40 289 0.0 0.0 0.00 0.00 0.00 55 1013.9
20260509021516 41 289 0.0 0.0 0.00 0.00 0.00 61 1013.8
20260509020113 41 289 0.0 0.0 0.00 0.00 0.00 66 1013.6
20260509014525 41 289 0.0 0.0 0.00 0.00 0.00 70 1013.4
20260509013107 42 289 0.0 0.0 0.00 0.00 0.00 71 1013.4
20260509011520 43 289 0.0 0.0 0.00 0.00 0.00 70 1013.1
20260509004526 44 289 0.0 0.0 0.00 0.00 0.00 64 1012.6
20260509003125 44 289 0.0 0.0 0.00 0.00 0.00 61 1012.5
20260509001546 45 289 0.0 0.0 0.00 0.00 0.00 58 1012.2
20260509000008 46 289 0.0 1.0 0.00 0.00 0.00 55 1012.1
20260508234605 47 269 0.0 2.0 0.00 0.00 0.00 54 1011.8
20260508233021 48 267 0.0 2.0 0.00 0.00 0.00 53 1011.6
20260508231613 48 267 0.0 6.0 0.00 0.00 0.00 52 1011.5
20260508230030 49 284 1.0 6.0 0.00 0.00 0.00 51 1011.4
20260508224634 49 299 2.0 7.0 0.00 0.00 0.00 50 1011.4
20260508223046 50 285 1.0 6.0 0.00 0.00 0.00 50 1011.3
20260508221506 51 319 1.0 5.0 0.00 0.00 0.00 50 1011.2
20260508220057 51 304 1.0 4.0 0.00 0.00 0.00 51 1011.2
20260508213105 52 195 1.0 12.0 0.00 0.00 0.00 52 1011.1
20260508211526 51 277 0.0 8.0 0.00 0.00 0.00 53 1011.3
20260508210112 50 268 2.0 13.0 0.00 0.00 0.00 58 1011.2
20260508204536 50 234 0.0 5.0 0.00 0.00 0.00 60 1011.3
20260508203119 51 36 0.0 7.0 0.00 0.00 0.00 61 1011.2
20260508201540 49 228 0.0 6.0 0.00 0.00 0.00 65 1011.3
20260508200129 49 232 0.0 3.0 0.00 0.00 0.00 66 1011.4
20260508194603 46 270 0.0 4.0 0.00 0.00 0.00 69 1011.3
20260508193006 45 281 1.0 4.0 0.00 0.00 0.00 67 1011.5
20260508191608 44 329 0.0 4.0 0.00 0.00 0.00 67 1011.6
20260508190019 44 281 0.0 5.0 0.00 0.00 0.00 70 1011.7
20260508184620 45 309 1.0 5.0 0.00 0.00 0.00 67 1011.7
20260508181624 46 269 0.0 3.0 0.00 0.00 0.00 66 1011.5
20260508180042 46 22 0.0 4.0 0.00 0.00 0.00 65 1011.4
20260508174638 45 254 1.0 3.0 0.00 0.00 0.00 67 1011.5
20260508173052 46 273 0.0 5.0 0.00 0.00 0.00 67 1011.5
20260508171511 48 288 2.0 10.0 0.00 0.00 0.00 56 1011.5
20260508170105 50 332 2.0 7.0 0.00 0.00 0.00 50 1011.1
20260508164521 51 249 1.0 12.0 0.00 0.00 0.00 50 1011.1
20260508163113 53 284 1.0 6.0 0.00 0.00 0.00 44 1010.7